[[{"header":{"parameterUnit":"m.s-1","parameterCategory":1,"la1":30.2992,"la2":30.254,"lo1":-89.0895,"lo2":-89.0443,"dy":0.0025,"dx":0.0025,"nx":19,"ny":19,"refTime":"2026-05-12T09:00:00:Z","depth":0,"parameterNumber":2,"parameterNumberName":"U-component_of_WINDS"},"data":[0,0,0,-0.5371,-0.5372,-0.5402,-0.5402,-0.5452,-0.5453,0,0,0,0,0,0,0,0,0,0,0,-0.537,-0.537,-0.5371,-0.5372,-0.5402,-0.5402,-0.5452,-0.5453,0,0,0,0,0,0,0,0,0,0,0,-0.5369,-0.537,-0.5371,-0.5372,-0.5402,-0.5402,-0.5452,-0.5425,0,0,0,0,0,0,0,0,0,0,-0.5395,-0.54,-0.537,-0.5371,-0.5372,-0.5402,-0.5402,-0.5424,-0.5427,-0.5444,0,-0.5461,0,-0.5458,-0.5457,-0.5457,0,0,0,-0.5367,-0.5397,-0.5399,-0.5371,-0.5373,-0.5402,-0.5387,-0.5426,-0.5429,-0.5448,-0.5461,-0.5463,-0.5458,-0.5457,-0.5458,-0.5571,-0.5572,0,0,-0.5366,-0.5379,-0.5396,-0.5401,-0.5397,-0.5386,-0.5388,-0.5428,-0.5443,-0.5461,-0.5464,-0.5459,-0.5458,-0.5458,-0.5571,-0.5572,0,0,0,-0.5364,-0.5378,-0.5378,-0.54,-0.5404,-0.5387,-0.5389,-0.5441,-0.544,-0.5464,-0.546,-0.5458,-0.5459,-0.557,-0.5571,-0.5623,0,0,0,-0.5363,-0.5377,-0.5378,-0.5386,-0.5403,-0.5423,-0.5402,-0.5437,-0.5441,-0.546,-0.5458,-0.546,-0.5569,-0.557,-0.5619,-0.5646,0,0,0,-0.5365,-0.5377,-0.5384,-0.5387,-0.54,-0.5422,-0.5423,-0.5438,-0.5439,-0.5457,-0.546,-0.5568,-0.557,-0.5616,-0.5641,-0.5681,0,0,0,-0.5372,-0.5429,-0.5385,-0.5447,-0.54,-0.5453,-0.5422,-0.5461,-0.5483,-0.5458,-0.5569,-0.5571,-0.5616,-0.5638,-0.5678,-0.5718,-0.5735,0,0,-0.5452,-0.544,-0.5475,-0.5436,-0.55,-0.5447,-0.5519,-0.5526,-0.5516,-0.5554,-0.5556,-0.562,-0.564,-0.568,-0.5825,-0.5839,0,0,0,-0.5505,-0.5531,-0.5545,-0.5567,-0.5573,-0.5581,-0.5576,-0.5579,-0.561,-0.5538,-0.5644,-0.5656,-0.5678,-0.5697,-0.5709,-0.5728,-0.5579,-0.5579,-0.5579,-0.564,-0.5623,-0.5681,-0.5667,-0.5688,-0.5682,-0.5698,-0.5701,-0.5677,-0.5703,-0.5715,-0.5805,-0.5827,-0.5836,-0.5856,-0.5733,-0.5733,-0.5733,-0.5733,-0.5757,-0.5792,-0.5759,-0.5804,-0.5786,-0.5824,-0.582,-0.5802,-0.5835,-0.5794,-0.5814,-0.5773,-0.5852,-0.5869,-0.5737,-0.5736,-0.5736,-0.5736,-0.5735,-0.5845,-0.5859,-0.5861,-0.5889,-0.5914,-0.5897,-0.5931,-0.5912,-0.5896,-0.5914,-0.5926,-0.5925,-0.5923,-0.592,-0.5921,-0.5921,-0.5921,-0.5922,-0.5922,-0.5937,-0.5937,-0.5967,-0.5978,-0.5989,-0.6002,-0.5995,-0.6006,-0.6014,-0.5998,-0.5998,-0.5974,-0.5862,-0.5835,-0.5927,-0.5926,-0.5925,-0.5925,-0.5924,-0.6066,-0.6034,-0.6081,-0.6092,-0.6103,-0.6129,-0.6104,-0.6128,-0.6134,-0.6152,-0.6122,-0.6042,-0.6028,-0.6019,-0.5997,-0.6124,-0.6124,-0.6124,-0.6124,-0.6142,-0.6133,-0.6176,-0.6196,-0.6212,-0.6194,-0.6249,-0.6244,-0.6235,-0.6238,-0.6216,-0.6184,-0.6175,-0.6167,-0.6154,-0.6134,-0.6293,-0.6294,-0.6294,-0.6222,-0.6213,-0.6263,-0.6252,-0.6259,-0.6267,-0.6317,-0.6342,-0.6324,-0.63,-0.624,-0.6233,-0.6182,-0.6166,-0.6144,-0.6124,-0.6086,0,0]},{"header":{"parameterUnit":"m.s-1","parameterCategory":1,"la1":30.2992,"la2":30.254,"lo1":-89.0895,"lo2":-89.0443,"dy":0.0025,"dx":0.0025,"nx":19,"ny":19,"refTime":"2026-05-12T09:00:00:Z","depth":0,"parameterNumber":3,"parameterNumberName":"V-component_of_WINDS"},"data":[0,0,0,-1.5083,-1.5084,-1.5105,-1.5105,-1.5135,-1.5135,0,0,0,0,0,0,0,0,0,0,0,-1.508,-1.508,-1.5083,-1.5084,-1.5105,-1.5105,-1.5135,-1.5135,0,0,0,0,0,0,0,0,0,0,0,-1.508,-1.508,-1.5081,-1.5084,-1.5105,-1.5105,-1.5135,-1.5118,0,0,0,0,0,0,0,0,0,0,-1.5096,-1.5097,-1.508,-1.5081,-1.5084,-1.5105,-1.5105,-1.5117,-1.5119,-1.5127,0,-1.5137,0,-1.5137,-1.5138,-1.5138,0,0,0,-1.5081,-1.5095,-1.5098,-1.5081,-1.5084,-1.5105,-1.5094,-1.5118,-1.512,-1.513,-1.5137,-1.5138,-1.5137,-1.5138,-1.5138,-1.52,-1.52,0,0,-1.508,-1.5085,-1.5097,-1.51,-1.5098,-1.5094,-1.5095,-1.5119,-1.5127,-1.5137,-1.5139,-1.5138,-1.5138,-1.5138,-1.5199,-1.52,0,0,0,-1.5078,-1.5084,-1.5087,-1.5099,-1.5102,-1.5094,-1.5096,-1.5125,-1.5126,-1.5139,-1.5138,-1.5138,-1.5139,-1.5199,-1.5199,-1.5225,0,0,0,-1.5077,-1.5083,-1.5086,-1.509,-1.5102,-1.5114,-1.5102,-1.5124,-1.5127,-1.5138,-1.5138,-1.5139,-1.5198,-1.5199,-1.5224,-1.5237,0,0,0,-1.5077,-1.5083,-1.5087,-1.509,-1.5099,-1.5114,-1.5116,-1.5125,-1.5126,-1.5138,-1.5139,-1.5198,-1.5199,-1.5222,-1.5234,-1.5255,0,0,0,-1.5078,-1.5109,-1.5088,-1.5122,-1.5099,-1.513,-1.5115,-1.5138,-1.5151,-1.5138,-1.5198,-1.5199,-1.5222,-1.5233,-1.5254,-1.5274,-1.5283,0,0,-1.512,-1.5114,-1.5134,-1.5116,-1.5152,-1.5126,-1.5166,-1.5172,-1.5168,-1.5189,-1.519,-1.5224,-1.5234,-1.5255,-1.533,-1.5338,0,0,0,-1.5149,-1.5163,-1.5171,-1.5185,-1.5191,-1.5198,-1.5198,-1.52,-1.5218,-1.518,-1.5237,-1.5243,-1.5255,-1.5264,-1.527,-1.528,-1.5204,-1.5204,-1.5204,-1.5214,-1.5209,-1.5241,-1.5238,-1.5251,-1.5251,-1.5261,-1.5264,-1.5253,-1.5267,-1.5273,-1.532,-1.5331,-1.5336,-1.5346,-1.5283,-1.5283,-1.5283,-1.5283,-1.5275,-1.5294,-1.5281,-1.5307,-1.5301,-1.5323,-1.5324,-1.5316,-1.5335,-1.5314,-1.5324,-1.5303,-1.5344,-1.5353,-1.5285,-1.5285,-1.5285,-1.5284,-1.5284,-1.5317,-1.5326,-1.5329,-1.5349,-1.5364,-1.536,-1.5379,-1.5372,-1.5365,-1.5375,-1.5382,-1.5381,-1.538,-1.5379,-1.5379,-1.5379,-1.5379,-1.5379,-1.5379,-1.536,-1.5363,-1.5381,-1.5392,-1.54,-1.541,-1.5411,-1.5419,-1.5425,-1.5418,-1.5418,-1.5406,-1.5349,-1.5335,-1.5382,-1.5382,-1.5381,-1.5381,-1.5381,-1.5424,-1.5409,-1.5437,-1.5445,-1.5458,-1.5474,-1.5465,-1.5481,-1.5486,-1.5496,-1.5482,-1.5441,-1.5434,-1.5429,-1.5418,-1.5483,-1.5483,-1.5483,-1.5483,-1.5461,-1.5457,-1.5485,-1.5499,-1.5511,-1.5507,-1.5538,-1.554,-1.5538,-1.5541,-1.553,-1.5514,-1.551,-1.5506,-1.5499,-1.5488,-1.557,-1.557,-1.557,-1.55,-1.5498,-1.5526,-1.5526,-1.5535,-1.5543,-1.5573,-1.5589,-1.5584,-1.5574,-1.5543,-1.554,-1.5513,-1.5505,-1.5494,-1.5484,-1.5464,0,0]}]]